OPS 4682 DEB, 38414

Orbit data source: Space-Track

OPS 4682 DEB, 38414 is space debris in LEO originally from a launch on Sat, 03 Apr 1965 UTC launched from the Air Force Western Test Range (AFWTR). Debris objects in space refer to the collection of defunct objects orbiting the Earth. Examples of debris include non-operational satellites, rocket bodies, and fragments generated from explosions, collisions, or faulty payload assembly.

Loading next visibility...
Identifier
38414, 1965-027DT
Orbit
LEO
Country
Flag of USUS
Related business
Manufacturer
Unknown
Mission
Spacecraft
Bus & Motor
Unknown
Mass
Unknown
Launch date (UTC)
1965-04-03 (61 years ago)
Launch vehicle
Unknown
Launch site
Air Force Western Test Range (AFWTR)
Object type
Payload
Rocket body
Debris
Shape & HBR
Unknown shape, 0.1 m
Radar Cross Section
Small (<0.1 m²)

Expand to show TLE details & history
Last TLE update: 1 week ago

TLE from 1 week ago
0 OPS 4682 DEB
1 38414U 65027DT  26096.95931667 -.00000260  00000-0 -90966-3 0  9992
2 38414  90.2375 350.8721 0039145 301.0841  58.6441 12.98054489131567
Epoch: 2026-04-06T23:01Z
TLE epoch observation values (Epoch: 2026-04-06T23:01:24.960Z)
Latitude
Longitude
170.27519°
Altitude
1,257.104 km
Speed
7.234 km/s
True Right ascension
23h 23m 29s
True Declination
0° 00' 00"
Sunlit
Object was in daylight at epoch
Visualization orbit readout
Latitude
Unknown
Longitude
Unknown
Altitude
Unknown
Speed
Unknown
Apparent Right ascension
Unknown
Apparent Declination
Unknown
Sunlit
N/A
Visualization observer readout
Local Sidereal Time
15:42:01
Azimuth
Unknown
Elevation
Unknown
Doppler factor
Unknown
Orbital elements
Apogee altitude
1,296.775 km
Perigee altitude
1,236.922 km
Semi-major axis
7,644.986 km
Eccentricity
0.00391
Inclination
90.2375°
RAAN
350.8721°
Arg. of periapsis
301.0841°
True anomaly
59.02813°
Mean anomaly
58.6441°
Eccentric anomaly
58.83602°
Mean motion
3.24697 °/min
Orbital period
110.87 mins
BSTAR
-0.00090966
Loading maneuver chart data...
Computing Atmospheric mass density...
Loading historical data...
Loading historical data...
Loading historical data...
Loading historical data...
Loading historical data...
Loading historical data...
Loading historical data...

Documentation

Showing up to 5 results
|